KLM34A ENBR-EHAM

Flight info

Callsign KLM34A
Flight time 1h 21m
Altitude 38000
Route TUXIL DCT ZOL DCT ATNAK DCT TIPAN DCT WECOW DCT LARDI DCT TOPPA
Aircraft A321/M-SDE3FGHIRWY/LB1

Departure

Time 2026-04-27 14:26
Airport Bergen Airport, Flesland (ENBR)

Arrival

Time 2026-04-27 15:48
Airport Amsterdam Airport Schiphol (EHAM)
Time Latitude Longitude Altitude Speed Heading
2026-04-27 14:02 60.28963 5.22587 173 ft 0 kts 131°
2026-04-27 14:17 60.28974 5.22564 173 ft 4 kts 133°
2026-04-27 14:18 60.28993 5.22525 171 ft 4 kts 140°
2026-04-27 14:18 60.29015 5.22496 171 ft 4 kts 163°
2026-04-27 14:18 60.29032 5.22492 171 ft 4 kts 247°
2026-04-27 14:18 60.29034 5.22506 171 ft 0 kts 263°
2026-04-27 14:22 60.29030 5.22448 169 ft 7 kts 258°
2026-04-27 14:22 60.28979 5.22385 166 ft 11 kts 178°
2026-04-27 14:22 60.28921 5.22312 163 ft 12 kts 227°
2026-04-27 14:22 60.28840 5.22305 162 ft 12 kts 170°
2026-04-27 14:23 60.28762 5.22332 163 ft 11 kts 170°
2026-04-27 14:23 60.28694 5.22356 164 ft 9 kts 170°
2026-04-27 14:23 60.28635 5.22375 165 ft 9 kts 171°
2026-04-27 14:23 60.28551 5.22403 164 ft 17 kts 171°
2026-04-27 14:24 60.28429 5.22444 163 ft 17 kts 171°
2026-04-27 14:24 60.28333 5.22476 158 ft 8 kts 171°
2026-04-27 14:24 60.28284 5.22422 155 ft 8 kts 246°
2026-04-27 14:24 60.28281 5.22390 154 ft 0 kts 259°
2026-04-27 14:25 60.28279 5.22367 154 ft 6 kts 260°
2026-04-27 14:25 60.28281 5.22236 156 ft 11 kts 283°
2026-04-27 14:25 60.28321 5.22162 159 ft 6 kts 346°
2026-04-27 14:26 60.28390 5.22137 160 ft 26 kts 349°
2026-04-27 14:26 60.28825 5.21989 162 ft 99 kts 350°
2026-04-27 14:26 60.29711 5.21686 161 ft 152 kts 349°
2026-04-27 14:26 60.30768 5.21404 771 ft 151 kts 352°
2026-04-27 14:27 60.31795 5.21205 1483 ft 151 kts 351°
2026-04-27 14:27 60.32880 5.20847 1887 ft 168 kts 348°
2026-04-27 14:27 60.34109 5.20379 2277 ft 191 kts 348°
2026-04-27 14:27 60.35481 5.19862 2483 ft 211 kts 348°
2026-04-27 14:28 60.36959 5.19201 2726 ft 227 kts 338°
2026-04-27 14:28 60.38274 5.17208 3020 ft 250 kts 303°
2026-04-27 14:28 60.38829 5.13873 3825 ft 257 kts 270°
2026-04-27 14:28 60.38343 5.10416 4697 ft 262 kts 234°
2026-04-27 14:29 60.36934 5.08124 5572 ft 266 kts 199°
2026-04-27 14:29 60.35082 5.07771 6420 ft 272 kts 173°
2026-04-27 14:29 60.33192 5.08391 7273 ft 277 kts 168°
2026-04-27 14:29 60.31287 5.09239 8056 ft 285 kts 166°
2026-04-27 14:30 60.29363 5.10148 8856 ft 290 kts 166°
2026-04-27 14:30 60.27386 5.11058 9769 ft 293 kts 167°
2026-04-27 14:30 60.25374 5.11937 10568 ft 299 kts 167°
2026-04-27 14:30 60.23261 5.12822 10878 ft 322 kts 168°
2026-04-27 14:31 60.20991 5.13743 11194 ft 341 kts 168°
2026-04-27 14:31 60.18629 5.14684 11844 ft 349 kts 168°
2026-04-27 14:31 60.16234 5.15629 12614 ft 353 kts 168°
2026-04-27 14:31 60.13815 5.16582 13417 ft 356 kts 168°
2026-04-27 14:32 60.11366 5.17549 14171 ft 360 kts 168°
2026-04-27 14:32 60.08892 5.18532 14841 ft 364 kts 168°
2026-04-27 14:32 60.06391 5.19524 15554 ft 368 kts 168°
2026-04-27 14:32 60.03865 5.20516 16267 ft 371 kts 168°
2026-04-27 14:33 60.01322 5.21509 16950 ft 375 kts 168°
2026-04-27 14:33 59.98746 5.22515 17615 ft 379 kts 168°
2026-04-27 14:33 59.96146 5.23533 18263 ft 383 kts 168°
2026-04-27 14:33 59.93520 5.24559 18895 ft 387 kts 168°
2026-04-27 14:34 59.90863 5.25596 19479 ft 390 kts 168°
2026-04-27 14:34 59.88186 5.26638 20057 ft 393 kts 168°
2026-04-27 14:34 59.85491 5.27682 20635 ft 396 kts 168°
2026-04-27 14:34 59.82772 5.28729 21199 ft 400 kts 168°
2026-04-27 14:35 59.80030 5.29784 21763 ft 403 kts 168°
2026-04-27 14:35 59.77265 5.30853 22334 ft 406 kts 168°
2026-04-27 14:35 59.74491 5.31926 22915 ft 408 kts 168°
2026-04-27 14:35 59.71697 5.33010 23449 ft 411 kts 168°
2026-04-27 14:36 59.68874 5.34105 23931 ft 415 kts 168°
2026-04-27 14:36 59.66035 5.35200 24409 ft 417 kts 168°
2026-04-27 14:36 59.63169 5.36299 24810 ft 421 kts 168°
2026-04-27 14:36 59.60285 5.37403 25279 ft 423 kts 168°
2026-04-27 14:37 59.57391 5.38507 25753 ft 424 kts 168°
2026-04-27 14:37 59.54481 5.39617 26194 ft 427 kts 167°
2026-04-27 14:37 59.51562 5.40731 26656 ft 429 kts 167°
2026-04-27 14:37 59.48627 5.41850 27107 ft 431 kts 168°
2026-04-27 14:38 59.45677 5.42970 27588 ft 432 kts 168°
2026-04-27 14:38 59.42717 5.44091 28031 ft 434 kts 167°
2026-04-27 14:38 59.39741 5.45217 28453 ft 436 kts 167°
2026-04-27 14:38 59.36753 5.46330 28863 ft 439 kts 168°
2026-04-27 14:39 59.33738 5.47430 29262 ft 441 kts 168°
2026-04-27 14:39 59.30707 5.48531 29649 ft 444 kts 167°
2026-04-27 14:39 59.27650 5.49637 30022 ft 446 kts 167°
2026-04-27 14:39 59.24630 5.50728 30379 ft 448 kts 167°
2026-04-27 14:40 59.21553 5.51839 30687 ft 451 kts 167°
2026-04-27 14:40 59.18463 5.52952 31005 ft 453 kts 168°
2026-04-27 14:40 59.15357 5.54070 31328 ft 455 kts 168°
2026-04-27 14:40 59.12247 5.55190 31734 ft 455 kts 168°
2026-04-27 14:41 59.09133 5.56307 32131 ft 454 kts 168°
2026-04-27 14:41 59.06020 5.57418 32521 ft 455 kts 168°
2026-04-27 14:41 59.02907 5.58530 32912 ft 455 kts 168°
2026-04-27 14:41 58.99790 5.59649 33307 ft 455 kts 168°
2026-04-27 14:42 58.96673 5.60765 33690 ft 456 kts 168°
2026-04-27 14:42 58.93554 5.61872 34071 ft 456 kts 168°
2026-04-27 14:42 58.90427 5.62940 34458 ft 457 kts 171°
2026-04-27 14:42 58.87245 5.63334 34729 ft 459 kts 180°
2026-04-27 14:43 58.84067 5.62795 34999 ft 460 kts 189°
2026-04-27 14:43 58.80918 5.61652 35287 ft 461 kts 190°
2026-04-27 14:43 58.77768 5.60503 35565 ft 461 kts 190°
2026-04-27 14:43 58.74611 5.59368 35853 ft 461 kts 190°
2026-04-27 14:44 58.71449 5.58242 36138 ft 462 kts 190°
2026-04-27 14:44 58.68287 5.57119 36415 ft 462 kts 190°
2026-04-27 14:44 58.65121 5.55999 36690 ft 462 kts 190°
2026-04-27 14:44 58.61947 5.54878 36956 ft 463 kts 190°
2026-04-27 14:45 58.58777 5.53759 37220 ft 463 kts 190°
2026-04-27 14:45 58.55608 5.52640 37474 ft 463 kts 190°
2026-04-27 14:45 58.52441 5.51519 37714 ft 463 kts 191°
2026-04-27 14:45 58.49270 5.50403 37947 ft 464 kts 191°
2026-04-27 14:46 58.46091 5.49288 38172 ft 464 kts 191°
2026-04-27 14:46 58.42915 5.48171 38364 ft 465 kts 191°
2026-04-27 14:46 58.39772 5.47065 38410 ft 465 kts 191°
2026-04-27 14:47 58.33373 5.44823 38404 ft 464 kts 191°
2026-04-27 14:47 58.27068 5.42629 38404 ft 464 kts 191°
2026-04-27 14:48 58.21751 5.40783 38399 ft 463 kts 191°
2026-04-27 14:48 58.12238 5.37490 38400 ft 463 kts 191°
2026-04-27 14:49 58.05892 5.35300 38407 ft 464 kts 191°
2026-04-27 14:49 57.99571 5.33135 38408 ft 464 kts 191°
2026-04-27 14:50 57.93217 5.30970 38410 ft 464 kts 191°
2026-04-27 14:50 57.86849 5.28811 38410 ft 465 kts 191°
2026-04-27 14:51 57.80486 5.26651 38406 ft 465 kts 191°
2026-04-27 14:51 57.74118 5.24494 38406 ft 465 kts 191°
2026-04-27 14:52 57.67746 5.22347 38403 ft 465 kts 191°
2026-04-27 14:52 57.61361 5.20209 38399 ft 465 kts 191°
2026-04-27 14:53 57.54994 5.18089 38394 ft 465 kts 191°
2026-04-27 14:53 57.48626 5.15971 38402 ft 464 kts 191°
2026-04-27 14:54 57.42297 5.13858 38396 ft 464 kts 191°
2026-04-27 14:54 57.35937 5.11750 38395 ft 464 kts 191°
2026-04-27 14:55 57.29581 5.09657 38397 ft 464 kts 191°
2026-04-27 14:55 57.23230 5.07584 38397 ft 464 kts 191°
2026-04-27 14:56 57.16875 5.05501 38394 ft 464 kts 191°
2026-04-27 14:56 57.10517 5.03409 38396 ft 464 kts 191°
2026-04-27 14:57 57.04199 5.01354 38391 ft 463 kts 191°
2026-04-27 14:57 56.97841 4.99330 38381 ft 463 kts 190°
2026-04-27 14:58 56.91463 4.97594 38386 ft 463 kts 189°
2026-04-27 14:58 56.85067 4.96010 38386 ft 463 kts 189°
2026-04-27 14:59 56.78675 4.94378 38391 ft 463 kts 189°
2026-04-27 14:59 56.72291 4.92700 38386 ft 463 kts 189°
2026-04-27 15:00 56.65914 4.91014 38391 ft 463 kts 189°
2026-04-27 15:00 56.59544 4.89349 38393 ft 462 kts 189°
2026-04-27 15:01 56.53208 4.87700 38393 ft 462 kts 189°
2026-04-27 15:01 56.46841 4.86050 38385 ft 462 kts 189°
2026-04-27 15:02 56.40479 4.84405 38386 ft 461 kts 189°
2026-04-27 15:02 56.34112 4.82766 38387 ft 461 kts 189°
2026-04-27 15:03 56.27759 4.81130 38385 ft 461 kts 189°
2026-04-27 15:03 56.21393 4.79499 38382 ft 461 kts 189°
2026-04-27 15:04 56.15035 4.77881 38381 ft 461 kts 190°
2026-04-27 15:04 56.08679 4.76260 38384 ft 461 kts 189°
2026-04-27 15:05 56.02364 4.74665 38385 ft 461 kts 189°
2026-04-27 15:05 55.95973 4.73048 38384 ft 461 kts 190°
2026-04-27 15:06 55.89671 4.71453 38381 ft 460 kts 189°
2026-04-27 15:06 55.83323 4.69868 38379 ft 460 kts 189°
2026-04-27 15:07 55.76983 4.68286 38376 ft 460 kts 189°
2026-04-27 15:07 55.70647 4.66695 38375 ft 460 kts 189°
2026-04-27 15:08 55.64300 4.65113 38374 ft 460 kts 190°
2026-04-27 15:08 55.57954 4.63549 38378 ft 460 kts 190°
2026-04-27 15:09 55.51614 4.61997 38374 ft 460 kts 190°
2026-04-27 15:09 55.45282 4.60431 38370 ft 459 kts 190°
2026-04-27 15:10 55.38992 4.58883 38363 ft 459 kts 190°
2026-04-27 15:10 55.32659 4.57350 38361 ft 458 kts 190°
2026-04-27 15:11 55.26332 4.55804 38364 ft 458 kts 190°
2026-04-27 15:11 55.20005 4.54260 38373 ft 459 kts 190°
2026-04-27 15:12 55.13689 4.52743 38357 ft 457 kts 190°
2026-04-27 15:12 55.07386 4.51224 38359 ft 456 kts 190°
2026-04-27 15:13 55.01091 4.49702 38352 ft 456 kts 190°
2026-04-27 15:13 54.94803 4.48194 38355 ft 456 kts 190°
2026-04-27 15:14 54.88558 4.46705 38343 ft 456 kts 190°
2026-04-27 15:14 54.82238 4.45209 38344 ft 455 kts 190°
2026-04-27 15:15 54.76010 4.43723 38343 ft 455 kts 190°
2026-04-27 15:15 54.69728 4.42232 38341 ft 454 kts 190°
2026-04-27 15:16 54.63460 4.40750 38335 ft 454 kts 191°
2026-04-27 15:16 54.57469 4.37705 38346 ft 446 kts 209°
2026-04-27 15:17 54.51986 4.32707 38339 ft 446 kts 211°
2026-04-27 15:17 54.46492 4.27735 38335 ft 446 kts 210°
2026-04-27 15:18 54.40983 4.22781 38312 ft 447 kts 211°
2026-04-27 15:18 54.35508 4.17835 38329 ft 447 kts 211°
2026-04-27 15:19 54.30003 4.12860 38337 ft 448 kts 211°
2026-04-27 15:19 54.24480 4.07908 38336 ft 448 kts 211°
2026-04-27 15:20 54.18953 4.02984 38339 ft 448 kts 210°
2026-04-27 15:20 54.13420 3.98068 38329 ft 448 kts 211°
2026-04-27 15:21 54.07889 3.93149 38276 ft 447 kts 211°
2026-04-27 15:21 54.05119 3.90688 37885 ft 448 kts 211°
2026-04-27 15:21 54.02365 3.88249 37403 ft 445 kts 211°
2026-04-27 15:22 53.99612 3.85824 36928 ft 443 kts 211°
2026-04-27 15:22 53.96877 3.83419 36482 ft 441 kts 211°
2026-04-27 15:22 53.94160 3.81027 36044 ft 440 kts 211°
2026-04-27 15:22 53.91483 3.78672 35592 ft 437 kts 211°
2026-04-27 15:23 53.88789 3.76303 35156 ft 435 kts 211°
2026-04-27 15:23 53.86106 3.73949 34733 ft 433 kts 211°
2026-04-27 15:23 53.83435 3.71605 34326 ft 431 kts 211°
2026-04-27 15:23 53.80777 3.69271 33808 ft 429 kts 211°
2026-04-27 15:24 53.78129 3.66956 33322 ft 426 kts 211°
2026-04-27 15:24 53.75514 3.64679 32856 ft 421 kts 211°
2026-04-27 15:24 53.72920 3.62421 32382 ft 417 kts 211°
2026-04-27 15:24 53.70354 3.60194 31919 ft 411 kts 210°
2026-04-27 15:25 53.67826 3.58008 31427 ft 406 kts 211°
2026-04-27 15:25 53.65328 3.55847 30989 ft 400 kts 211°
2026-04-27 15:25 53.62813 3.53899 30531 ft 397 kts 203°
2026-04-27 15:25 53.60147 3.52725 30042 ft 397 kts 193°
2026-04-27 15:26 53.57383 3.52404 29529 ft 399 kts 183°
2026-04-27 15:26 53.54613 3.52892 29043 ft 400 kts 177°
2026-04-27 15:26 53.51866 3.53531 28586 ft 398 kts 178°
2026-04-27 15:26 53.49124 3.54158 28145 ft 396 kts 178°
2026-04-27 15:27 53.46403 3.54775 27715 ft 394 kts 178°
2026-04-27 15:27 53.43693 3.55384 27253 ft 392 kts 178°
2026-04-27 15:27 53.40995 3.55988 26783 ft 390 kts 178°
2026-04-27 15:27 53.38308 3.56626 26320 ft 389 kts 177°
2026-04-27 15:28 53.35638 3.57362 25872 ft 388 kts 176°
2026-04-27 15:28 53.32986 3.58154 25424 ft 387 kts 175°
2026-04-27 15:28 53.30348 3.58966 24979 ft 385 kts 175°
2026-04-27 15:28 53.27752 3.59765 24535 ft 383 kts 175°
2026-04-27 15:29 53.25124 3.60556 24106 ft 381 kts 175°
2026-04-27 15:29 53.22509 3.61327 23645 ft 380 kts 175°
2026-04-27 15:29 53.19921 3.62081 23140 ft 377 kts 175°
2026-04-27 15:29 53.17333 3.62831 22628 ft 375 kts 175°
2026-04-27 15:30 53.14769 3.63575 22140 ft 373 kts 175°
2026-04-27 15:30 53.12223 3.64313 21677 ft 371 kts 175°
2026-04-27 15:30 53.10540 3.64799 21376 ft 369 kts 175°
2026-04-27 15:30 53.07199 3.65758 20761 ft 366 kts 174°
2026-04-27 15:31 53.04695 3.66477 20305 ft 364 kts 174°
2026-04-27 15:31 53.02242 3.67184 19863 ft 362 kts 174°
2026-04-27 15:31 52.99761 3.67902 19415 ft 360 kts 174°
2026-04-27 15:31 52.97301 3.68612 18985 ft 358 kts 174°
2026-04-27 15:32 52.95675 3.69078 18698 ft 357 kts 174°
2026-04-27 15:32 52.93230 3.69775 18200 ft 355 kts 174°
2026-04-27 15:32 52.90767 3.70475 17702 ft 354 kts 174°
2026-04-27 15:32 52.88380 3.71155 17232 ft 352 kts 173°
2026-04-27 15:33 52.85968 3.71846 16754 ft 349 kts 173°
2026-04-27 15:33 52.83580 3.72530 16289 ft 347 kts 173°
2026-04-27 15:33 52.81204 3.73208 15829 ft 345 kts 173°
2026-04-27 15:33 52.78843 3.73877 15412 ft 342 kts 173°
2026-04-27 15:34 52.76499 3.74539 15015 ft 340 kts 173°
2026-04-27 15:34 52.74165 3.75096 14633 ft 338 kts 175°
2026-04-27 15:34 52.71834 3.75506 14237 ft 335 kts 177°
2026-04-27 15:34 52.69513 3.75839 13817 ft 334 kts 178°
2026-04-27 15:35 52.67203 3.76153 13384 ft 332 kts 176°
2026-04-27 15:35 52.64981 3.77125 12951 ft 333 kts 155°
2026-04-27 15:35 52.63067 3.79261 12539 ft 333 kts 143°
2026-04-27 15:35 52.61254 3.81630 12124 ft 332 kts 142°
2026-04-27 15:36 52.59462 3.84000 11730 ft 330 kts 142°
2026-04-27 15:36 52.57679 3.86362 11345 ft 328 kts 142°
2026-04-27 15:36 52.55902 3.88709 10970 ft 326 kts 142°
2026-04-27 15:36 52.54137 3.91027 10600 ft 323 kts 142°
2026-04-27 15:37 52.52416 3.93293 10259 ft 313 kts 142°
2026-04-27 15:37 52.50733 3.95525 9919 ft 309 kts 142°
2026-04-27 15:37 52.49071 3.97713 9556 ft 304 kts 142°
2026-04-27 15:37 52.47423 3.99855 9190 ft 300 kts 142°
2026-04-27 15:38 52.45897 4.02161 8824 ft 297 kts 134°
2026-04-27 15:38 52.44495 4.04605 8453 ft 293 kts 132°
2026-04-27 15:38 52.43105 4.07032 8097 ft 290 kts 133°
2026-04-27 15:38 52.41728 4.09423 7742 ft 287 kts 133°
2026-04-27 15:39 52.40360 4.11783 7392 ft 284 kts 133°
2026-04-27 15:39 52.39003 4.14107 7047 ft 282 kts 132°
2026-04-27 15:39 52.37636 4.16402 6701 ft 280 kts 133°
2026-04-27 15:39 52.36294 4.18649 6360 ft 278 kts 132°
2026-04-27 15:40 52.34939 4.20902 6023 ft 277 kts 132°
2026-04-27 15:40 52.33582 4.23140 5659 ft 277 kts 133°
2026-04-27 15:40 52.32232 4.25373 5329 ft 274 kts 132°
2026-04-27 15:40 52.30943 4.27524 5000 ft 262 kts 133°
2026-04-27 15:41 52.29709 4.29577 4708 ft 254 kts 133°
2026-04-27 15:41 52.28481 4.31611 4450 ft 249 kts 133°
2026-04-27 15:41 52.27275 4.33636 4170 ft 247 kts 133°
2026-04-27 15:41 52.26077 4.35625 3882 ft 243 kts 133°
2026-04-27 15:42 52.24915 4.37540 3592 ft 230 kts 133°
2026-04-27 15:42 52.23801 4.39345 3321 ft 222 kts 133°
2026-04-27 15:42 52.22728 4.41101 3062 ft 217 kts 132°
2026-04-27 15:42 52.21664 4.42817 2762 ft 213 kts 133°
2026-04-27 15:43 52.20803 4.44663 2455 ft 198 kts 107°
2026-04-27 15:43 52.20536 4.46811 2147 ft 191 kts 94°
2026-04-27 15:43 52.20402 4.48933 2015 ft 188 kts 93°
2026-04-27 15:43 52.20399 4.51006 1987 ft 179 kts 78°
2026-04-27 15:44 52.20840 4.52847 2004 ft 174 kts 58°
2026-04-27 15:44 52.21478 4.54491 1989 ft 165 kts 57°
2026-04-27 15:44 52.22080 4.56039 1988 ft 159 kts 57°
2026-04-27 15:44 52.22666 4.57549 1986 ft 157 kts 57°
2026-04-27 15:45 52.23246 4.59044 1980 ft 156 kts 57°
2026-04-27 15:45 52.23818 4.60522 1857 ft 153 kts 57°
2026-04-27 15:45 52.24412 4.62058 1684 ft 163 kts 57°
2026-04-27 15:45 52.24971 4.63507 1469 ft 142 kts 56°
2026-04-27 15:46 52.25476 4.64814 1284 ft 132 kts 57°
2026-04-27 15:46 52.25963 4.66077 1103 ft 131 kts 56°
2026-04-27 15:46 52.26442 4.67317 935 ft 129 kts 56°
2026-04-27 15:46 52.26919 4.68552 757 ft 130 kts 56°
2026-04-27 15:47 52.27400 4.69800 607 ft 128 kts 56°
2026-04-27 15:47 52.27875 4.71033 425 ft 131 kts 57°
2026-04-27 15:47 52.28356 4.72266 249 ft 127 kts 55°
2026-04-27 15:47 52.28821 4.73498 57 ft 127 kts 57°
2026-04-27 15:48 52.29282 4.74704 10 ft 119 kts 52°
2026-04-27 15:48 52.29661 4.75676 -2 ft 78 kts 58°
2026-04-27 15:48 52.29873 4.76225 -3 ft 48 kts 58°
2026-04-27 15:49 52.30180 4.77023 -3 ft 29 kts 58°
2026-04-27 15:49 52.30261 4.77227 -4 ft 21 kts 51°
2026-04-27 15:49 52.30375 4.77366 -3 ft 18 kts 28°
2026-04-27 15:49 52.30458 4.77418 -2 ft 12 kts
2026-04-27 15:50 52.30516 4.77371 -1 ft 7 kts 327°
2026-04-27 15:50 52.30560 4.77324 -1 ft 10 kts 327°
2026-04-27 15:50 52.30638 4.77229 -1 ft 15 kts 302°
2026-04-27 15:50 52.30652 4.77065 -1 ft 14 kts 272°
2026-04-27 15:51 52.30653 4.76917 -1 ft 8 kts 260°
2026-04-27 15:51 52.30632 4.76835 -1 ft 8 kts 252°
2026-04-27 15:51 52.30648 4.76764 -1 ft 7 kts 315°
2026-04-27 15:51 52.30651 4.76702 -1 ft 6 kts 244°
2026-04-27 15:52 52.30631 4.76650 -1 ft 4 kts 238°
2026-04-27 15:52 52.30627 4.76639 -1 ft 0 kts 238°